Location: Laas
(43.4693°N, 0.3073°E)
Time: 15:56:53
(UTC+00:00)

Cosmos 1300 - Pass Details

Date: 25 October 2020
Orbit: 511 x 513 km, 82.5° (Epoch: 23 November)

Event Time Altitude Azimuth Distance (km) Brightness Sun altitude
Rises 18:07:34 0° 191° (S) 2,614 6.5 -13.0°
Reaches altitude 10° 18:09:41 10° 193° (SSW) 1,733 5.6 -13.4°
Maximum altitude 18:13:29 75° 278° (W) 537 2.9 -14.1°
Drops below altitude 10° 18:17:19 10° 5° (N) 1,748 5.3 -14.8°
Sets 18:19:28 0° 7° (N) 2,640 6.2 -15.1°
